User: anonymous   Login
Location: Unspecified
(0.0000°N, 0.0000°E)
Time: 08:00:12
(UTC+00:00)
Language:

Snapshot - Orbit

View from above orbital plane
View from above orbital plane
View from above satellite
View from above satellite

Ground track
Ground track

The orbit data is extracted from the following two-line orbital elements,

1 01314U 65027A   15124.03324672  .00000011  00000-0  12735-4 0  9993
2 01314 090.2981 263.3162 0032033 081.6514 053.2272 12.91740733106981
Epoch (UTC): 04 May 2015 00:47:52
Eccentricity: 0.0032033
inclination: 90.2981°
perigee height: 1270 km
apogee height: 1319 km
right ascension of ascending node: 263.3162°
argument of perigee: 81.6514°
revolutions per day: 12.91740733
mean anomaly at epoch: 53.2272°
orbit number at epoch: 10698

The dashed part of the orbit path shows where the satellite is in the earth's shadow,  

DLR